| time (UTC) | temp C | wind direction | speed KPH | gust KPH | rain 1hr cm | rain 24hr cm | rain mn cm | humidity % | barometer mb |
| 20260905072148 | 8 | 217 | 0.0 | 3.2 | 0.00 | 0.33 | 0.00 | 81 | 1029.3 |
| 20260905072134 | 8 | 216 | 3.2 | 3.2 | 0.00 | 0.33 | 0.00 | 81 | 1029.3 |
| 20260905071149 | 8 | 220 | 0.0 | 0.0 | 0.00 | 0.33 | 0.00 | 81 | 1029.2 |
| 20260905070913 | 8 | 244 | 0.0 | 0.0 | 0.00 | 0.33 | 0.00 | 81 | 1029.1 |
| 20260905070147 | 8 | 244 | 0.0 | 0.0 | 0.00 | 0.33 | 0.00 | 80 | 1029.1 |
| 20260905065649 | 8 | 244 | 0.0 | 3.2 | 0.00 | 0.33 | 0.33 | 79 | 1029.1 |
| 20260905065148 | 8 | 244 | 1.6 | 3.2 | 0.00 | 0.33 | 0.33 | 80 | 1029.1 |
| 20260905064652 | 8 | 206 | 0.0 | 3.2 | 0.00 | 0.33 | 0.33 | 80 | 1029.1 |
| 20260905064150 | 8 | 224 | 0.0 | 0.0 | 0.00 | 0.33 | 0.33 | 79 | 1029.1 |
| 20260905063914 | 8 | 224 | 0.0 | 0.0 | 0.00 | 0.33 | 0.33 | 78 | 1029.1 |
| 20260905063148 | 9 | 224 | 0.0 | 0.0 | 0.00 | 0.33 | 0.33 | 77 | 1029.1 |
| 20260905062647 | 10 | 227 | 0.0 | 1.6 | 0.00 | 0.33 | 0.33 | 76 | 1028.9 |
| 20260905062157 | 10 | 212 | 0.0 | 1.6 | 0.00 | 0.33 | 0.33 | 76 | 1028.9 |
| 20260905061647 | 10 | 212 | 0.0 | 0.0 | 0.00 | 0.33 | 0.33 | 76 | 1028.9 |
| 20260905061149 | 10 | 212 | 0.0 | 1.6 | 0.00 | 0.33 | 0.33 | 76 | 1028.8 |
| 20260905060647 | 10 | 212 | 0.0 | 1.6 | 0.00 | 0.33 | 0.33 | 76 | 1028.8 |
| 20260905060148 | 10 | 216 | 0.0 | 0.0 | 0.00 | 0.33 | 0.33 | 76 | 1028.8 |
| 20260905055702 | 10 | 193 | 0.0 | 3.2 | 0.00 | 0.33 | 0.33 | 75 | 1028.8 |
| 20260905055647 | 10 | 193 | 1.6 | 3.2 | 0.00 | 0.33 | 0.33 | 75 | 1028.8 |
| 20260905054645 | 10 | 199 | 0.0 | 0.0 | 0.00 | 0.33 | 0.33 | 76 | 1028.8 |
| 20260905054145 | 10 | 210 | 0.0 | 0.0 | 0.00 | 0.33 | 0.33 | 76 | 1028.7 |
| 20260905053907 | 10 | 217 | 0.0 | 4.8 | 0.00 | 0.33 | 0.33 | 76 | 1028.8 |
| 20260905053146 | 10 | 168 | 1.6 | 4.8 | 0.00 | 0.33 | 0.33 | 76 | 1028.8 |
| 20260905052647 | 10 | 172 | 1.6 | 4.8 | 0.00 | 0.33 | 0.33 | 76 | 1028.8 |
| 20260905052145 | 10 | 257 | 0.0 | 1.6 | 0.00 | 0.33 | 0.33 | 75 | 1028.8 |
| 20260905051645 | 10 | 257 | 0.0 | 3.2 | 0.00 | 0.33 | 0.33 | 75 | 1028.7 |
| 20260905051145 | 10 | 257 | 0.0 | 4.8 | 0.00 | 0.33 | 0.33 | 74 | 1028.7 |
| 20260905051129 | 10 | 223 | 3.2 | 4.8 | 0.00 | 0.33 | 0.33 | 74 | 1028.7 |
| 20260905050146 | 10 | 172 | 3.2 | 3.2 | 0.00 | 0.33 | 0.33 | 73 | 1028.7 |
| 20260905050134 | 11 | 197 | 0.0 | 3.2 | 0.00 | 0.33 | 0.33 | 73 | 1028.7 |
| 20260905045146 | 11 | 223 | 0.0 | 4.8 | 0.00 | 0.33 | 0.33 | 72 | 1028.7 |
| 20260905044646 | 11 | 223 | 3.2 | 4.8 | 0.00 | 0.33 | 0.33 | 73 | 1028.7 |
| 20260905044409 | 11 | 233 | 0.0 | 0.0 | 0.00 | 0.33 | 0.33 | 72 | 1028.6 |
| 20260905043644 | 11 | 171 | 0.0 | 0.0 | 0.00 | 0.33 | 0.33 | 72 | 1028.6 |
| 20260905043144 | 11 | 168 | 0.0 | 0.0 | 0.00 | 0.33 | 0.33 | 72 | 1028.5 |
| 20260905042645 | 11 | 168 | 0.0 | 0.0 | 0.00 | 0.33 | 0.33 | 71 | 1028.5 |
| 20260905042144 | 11 | 200 | 0.0 | 0.0 | 0.00 | 0.33 | 0.33 | 71 | 1028.5 |
| 20260905041644 | 11 | 219 | 0.0 | 0.0 | 0.00 | 0.33 | 0.33 | 71 | 1028.5 |
| 20260905041144 | 11 | 210 | 0.0 | 0.0 | 0.00 | 0.33 | 0.33 | 69 | 1028.4 |
| 20260905040646 | 12 | 227 | 0.0 | 0.0 | 0.00 | 0.33 | 0.33 | 70 | 1028.3 |
| 20260905040409 | 12 | 235 | 0.0 | 0.0 | 0.00 | 0.33 | 0.33 | 70 | 1028.2 |
| 20260905035645 | 12 | 227 | 0.0 | 0.0 | 0.00 | 0.33 | 0.33 | 69 | 1028.3 |
| 20260905035143 | 12 | 226 | 0.0 | 0.0 | 0.00 | 0.33 | 0.33 | 66 | 1028.3 |
| 20260905034644 | 12 | 226 | 0.0 | 0.0 | 0.00 | 0.33 | 0.33 | 67 | 1028.2 |
| 20260905034144 | 12 | 226 | 0.0 | 0.0 | 0.00 | 0.33 | 0.33 | 67 | 1028.1 |
| 20260905033644 | 12 | 226 | 0.0 | 0.0 | 0.00 | 0.33 | 0.33 | 67 | 1028.1 |
| 20260905033144 | 12 | 226 | 0.0 | 0.0 | 0.00 | 0.33 | 0.33 | 66 | 1028.1 |
| 20260905032644 | 12 | 213 | 0.0 | 0.0 | 0.00 | 0.33 | 0.33 | 66 | 1028.1 |
| 20260905032145 | 12 | 192 | 0.0 | 0.0 | 0.00 | 0.33 | 0.33 | 66 | 1028.1 |
| 20260905031903 | 12 | 192 | 0.0 | 0.0 | 0.00 | 0.33 | 0.33 | 67 | 1028.0 |
| 20260905031144 | 12 | 214 | 0.0 | 0.0 | 0.00 | 0.33 | 0.33 | 67 | 1027.9 |
| 20260905030643 | 12 | 221 | 0.0 | 0.0 | 0.00 | 0.33 | 0.33 | 67 | 1027.8 |
| 20260905030142 | 12 | 221 | 0.0 | 0.0 | 0.00 | 0.33 | 0.33 | 67 | 1027.7 |
| 20260905025643 | 12 | 245 | 0.0 | 0.0 | 0.00 | 0.33 | 0.33 | 66 | 1027.6 |
| 20260905025142 | 12 | 247 | 0.0 | 0.0 | 0.00 | 0.33 | 0.33 | 64 | 1027.5 |
| 20260905025124 | 13 | 247 | 0.0 | 0.0 | 0.00 | 0.33 | 0.33 | 64 | 1027.3 |
| 20260905024407 | 13 | 247 | 0.0 | 0.0 | 0.00 | 0.33 | 0.33 | 65 | 1027.3 |
| 20260905023643 | 13 | 189 | 0.0 | 0.0 | 0.00 | 0.33 | 0.33 | 64 | 1027.3 |
| 20260905023142 | 13 | 189 | 0.0 | 0.0 | 0.00 | 0.33 | 0.33 | 67 | 1027.2 |
| 20260905022641 | 13 | 189 | 0.0 | 0.0 | 0.00 | 0.33 | 0.33 | 69 | 1027.2 |
| 20260905022142 | 13 | 189 | 0.0 | 0.0 | 0.00 | 0.33 | 0.33 | 69 | 1027.2 |
| 20260905021647 | 13 | 110 | 0.0 | 1.6 | 0.00 | 0.33 | 0.33 | 70 | 1027.2 |
| 20260905021142 | 13 | 216 | 0.0 | 1.6 | 0.00 | 0.33 | 0.33 | 69 | 1027.1 |
| 20260905020645 | 14 | 216 | 0.0 | 0.0 | 0.00 | 0.33 | 0.33 | 68 | 1026.9 |
| 20260905020142 | 15 | 162 | 0.0 | 0.0 | 0.00 | 0.33 | 0.33 | 62 | 1026.9 |
| 20260905015641 | 15 | 162 | 0.0 | 0.0 | 0.00 | 0.33 | 0.33 | 57 | 1026.9 |
| 20260905015142 | 15 | 162 | 0.0 | 0.0 | 0.00 | 0.33 | 0.33 | 60 | 1026.8 |
| 20260905014902 | 15 | 162 | 0.0 | 0.0 | 0.00 | 0.33 | 0.33 | 61 | 1026.8 |
| 20260905014141 | 16 | 162 | 0.0 | 0.0 | 0.00 | 0.33 | 0.33 | 59 | 1026.7 |
| 20260905013641 | 16 | 162 | 0.0 | 0.0 | 0.00 | 0.33 | 0.33 | 57 | 1026.6 |
| 20260905013402 | 16 | 162 | 0.0 | 0.0 | 0.00 | 0.33 | 0.33 | 59 | 1026.6 |
| 20260905012641 | 16 | 162 | 0.0 | 0.0 | 0.00 | 0.33 | 0.33 | 56 | 1026.6 |
| 20260905012141 | 17 | 162 | 0.0 | 0.0 | 0.00 | 0.33 | 0.33 | 55 | 1026.5 |
| 20260905011641 | 17 | 162 | 0.0 | 0.0 | 0.00 | 0.33 | 0.33 | 52 | 1026.5 |
| 20260905011140 | 18 | 162 | 0.0 | 4.8 | 0.00 | 0.33 | 0.33 | 45 | 1026.5 |
| 20260905010642 | 18 | 162 | 0.0 | 4.8 | 0.00 | 0.33 | 0.33 | 43 | 1026.5 |
| 20260905010140 | 18 | 162 | 0.0 | 4.8 | 0.00 | 0.33 | 0.33 | 43 | 1026.3 |
| 20260905005641 | 18 | 147 | 3.2 | 4.8 | 0.00 | 0.33 | 0.33 | 41 | 1026.4 |
| 20260905005137 | 18 | 138 | 3.2 | 4.8 | 0.00 | 0.33 | 0.33 | 42 | 1026.3 |
| 20260905004902 | 18 | 173 | 1.6 | 6.4 | 0.00 | 0.33 | 0.33 | 41 | 1026.3 |
| 20260905004143 | 18 | 168 | 3.2 | 6.4 | 0.00 | 0.33 | 0.33 | 40 | 1026.3 |
| 20260905003639 | 18 | 158 | 4.8 | 8.0 | 0.00 | 0.33 | 0.33 | 41 | 1026.3 |
| 20260905003140 | 18 | 140 | 3.2 | 9.7 | 0.00 | 0.33 | 0.33 | 40 | 1026.2 |
| 20260905002644 | 18 | 117 | 1.6 | 9.7 | 0.00 | 0.33 | 0.33 | 41 | 1026.2 |
| 20260905002139 | 18 | 118 | 4.8 | 9.7 | 0.00 | 0.33 | 0.33 | 40 | 1026.2 |
| 20260905001640 | 18 | 104 | 3.2 | 11.3 | 0.00 | 0.33 | 0.33 | 41 | 1026.2 |
| 20260905001138 | 18 | 102 | 4.8 | 11.3 | 0.00 | 0.33 | 0.33 | 42 | 1026.2 |
| 20260905000634 | 18 | 117 | 3.2 | 9.7 | 0.00 | 0.33 | 0.33 | 42 | 1026.1 |
| 20260905000135 | 18 | 128 | 3.2 | 11.3 | 0.00 | 0.33 | 0.33 | 41 | 1026.1 |
| 20260904235906 | 18 | 124 | 3.2 | 11.3 | 0.00 | 0.33 | 0.33 | 41 | 1026.0 |
| 20260904235138 | 19 | 114 | 3.2 | 11.3 | 0.00 | 0.33 | 0.33 | 40 | 1026.1 |
| 20260904234640 | 19 | 141 | 4.8 | 9.7 | 0.00 | 0.33 | 0.33 | 39 | 1026.0 |
| 20260904234139 | 19 | 133 | 4.8 | 9.7 | 0.00 | 0.33 | 0.33 | 40 | 1025.8 |
| 20260904233638 | 18 | 61 | 3.2 | 9.7 | 0.00 | 0.33 | 0.33 | 42 | 1026.0 |
| 20260904233138 | 18 | 86 | 3.2 | 11.3 | 0.00 | 0.33 | 0.33 | 42 | 1026.0 |
| 20260904232638 | 18 | 125 | 3.2 | 11.3 | 0.00 | 0.33 | 0.33 | 42 | 1026.0 |
| 20260904232138 | 18 | 113 | 3.2 | 9.7 | 0.00 | 0.33 | 0.33 | 42 | 1026.0 |
| 20260904231637 | 18 | 97 | 6.4 | 8.0 | 0.00 | 0.33 | 0.33 | 41 | 1026.0 |
| 20260904231144 | 18 | 104 | 4.8 | 11.3 | 0.00 | 0.33 | 0.33 | 41 | 1025.8 |
| 20260904230854 | 18 | 109 | 3.2 | 14.5 | 0.00 | 0.33 | 0.33 | 41 | 1025.8 |
| 20260904225636 | 18 | 176 | 4.8 | 11.3 | 0.00 | 0.33 | 0.33 | 44 | 1025.8 |
| 20260904225137 | 18 | 118 | 6.4 | 9.7 | 0.00 | 0.33 | 0.33 | 43 | 1026.0 |
| 20260904224637 | 18 | 118 | 1.6 | 8.0 | 0.00 | 0.33 | 0.33 | 43 | 1026.0 |
| 20260904224137 | 18 | 104 | 3.2 | 14.5 | 0.00 | 0.33 | 0.33 | 42 | 1026.1 |
| 20260904223635 | 18 | 65 | 1.6 | 14.5 | 0.00 | 0.33 | 0.33 | 44 | 1026.1 |
| 20260904223136 | 18 | 127 | 1.6 | 20.9 | 0.00 | 0.33 | 0.33 | 45 | 1026.1 |
| 20260904222638 | 18 | 73 | 4.8 | 20.9 | 0.00 | 0.33 | 0.33 | 43 | 1026.0 |
| 20260904222136 | 18 | 113 | 8.0 | 19.3 | 0.00 | 0.33 | 0.33 | 43 | 1025.8 |
| 20260904221637 | 18 | 130 | 6.4 | 17.7 | 0.00 | 0.33 | 0.33 | 42 | 1026.0 |
| 20260904221626 | 19 | 142 | 11.3 | 22.5 | 0.00 | 0.33 | 0.33 | 42 | 1026.0 |
| 20260904220636 | 19 | 99 | 6.4 | 24.1 | 0.00 | 0.33 | 0.33 | 42 | 1026.0 |
| 20260904220359 | 19 | 148 | 9.7 | 24.1 | 0.00 | 0.33 | 0.33 | 43 | 1026.0 |
| 20260904215633 | 18 | 131 | 6.4 | 22.5 | 0.00 | 0.33 | 0.33 | 44 | 1026.0 |
| 20260904215352 | 19 | 100 | 8.0 | 22.5 | 0.00 | 0.33 | 0.33 | 45 | 1026.0 |
| 20260904214636 | 19 | 107 | 11.3 | 20.9 | 0.00 | 0.33 | 0.33 | 44 | 1026.0 |
| 20260904214402 | 19 | 92 | 9.7 | 20.9 | 0.00 | 0.33 | 0.33 | 44 | 1025.8 |
| 20260904213856 | 18 | 113 | 11.3 | 20.9 | 0.00 | 0.33 | 0.33 | 46 | 1025.8 |
| 20260904213355 | 19 | 73 | 9.7 | 20.9 | 0.00 | 0.33 | 0.33 | 44 | 1026.0 |
| 20260904213126 | 19 | 66 | 6.4 | 22.5 | 0.00 | 0.33 | 0.33 | 44 | 1026.0 |
| 20260904212135 | 19 | 107 | 14.5 | 22.5 | 0.00 | 0.33 | 0.33 | 42 | 1025.8 |
| 20260904211635 | 19 | 121 | 6.4 | 22.5 | 0.00 | 0.33 | 0.33 | 45 | 1025.7 |
| 20260904211405 | 18 | 62 | 8.0 | 22.5 | 0.00 | 0.33 | 0.33 | 44 | 1025.8 |
| 20260904210856 | 19 | 109 | 11.3 | 20.9 | 0.00 | 0.33 | 0.33 | 44 | 1025.7 |
| 20260904210134 | 18 | 69 | 11.3 | 20.9 | 0.00 | 0.33 | 0.33 | 45 | 1025.6 |
| 20260904210122 | 19 | 47 | 3.2 | 14.5 | 0.00 | 0.33 | 0.33 | 44 | 1025.7 |
| 20260904205134 | 19 | 38 | 6.4 | 11.3 | 0.00 | 0.33 | 0.33 | 45 | 1025.8 |
| 20260904204636 | 18 | 109 | 8.0 | 11.3 | 0.00 | 0.33 | 0.33 | 45 | 1025.7 |
| 20260904204135 | 18 | 68 | 4.8 | 9.7 | 0.00 | 0.33 | 0.33 | 46 | 1025.7 |
| 20260904203634 | 18 | 18 | 4.8 | 11.3 | 0.00 | 0.33 | 0.33 | 45 | 1025.7 |
| 20260904203352 | 18 | 51 | 4.8 | 11.3 | 0.00 | 0.33 | 0.33 | 45 | 1025.8 |
| 20260904202853 | 18 | 111 | 3.2 | 14.5 | 0.00 | 0.33 | 0.33 | 49 | 1025.8 |
| 20260904202132 | 18 | 107 | 8.0 | 14.5 | 0.00 | 0.33 | 0.33 | 48 | 1025.8 |
| 20260904201639 | 18 | 103 | 6.4 | 14.5 | 0.00 | 0.33 | 0.33 | 50 | 1025.8 |
| 20260904201136 | 18 | 54 | 3.2 | 11.3 | 0.00 | 0.33 | 0.33 | 49 | 1025.8 |
| 20260904200633 | 17 | 79 | 6.4 | 11.3 | 0.00 | 0.33 | 0.33 | 49 | 1025.8 |
| 20260904200133 | 17 | 27 | 3.2 | 11.3 | 0.00 | 0.33 | 0.33 | 48 | 1025.8 |
| 20260904195633 | 17 | 47 | 3.2 | 11.3 | 0.00 | 0.33 | 0.33 | 52 | 1026.0 |
| 20260904195133 | 17 | 144 | 3.2 | 8.0 | 0.00 | 0.33 | 0.33 | 57 | 1026.0 |
| 20260904194633 | 17 | 120 | 6.4 | 8.0 | 0.00 | 0.33 | 0.33 | 57 | 1026.0 |
| 20260904194615 | 16 | 27 | 0.0 | 8.0 | 0.00 | 0.33 | 0.33 | 60 | 1026.1 |
| 20260904193631 | 16 | 41 | 3.2 | 8.0 | 0.00 | 0.33 | 0.33 | 61 | 1026.1 |
| 20260904193133 | 16 | 0 | 3.2 | 8.0 | 0.00 | 0.33 | 0.33 | 61 | 1026.2 |
| 20260904192632 | 16 | 39 | 6.4 | 8.0 | 0.00 | 0.33 | 0.33 | 59 | 1026.2 |
| 20260904192132 | 16 | 240 | 3.2 | 6.4 | 0.00 | 0.33 | 0.33 | 60 | 1026.2 |
| 20260904191632 | 15 | 99 | 1.6 | 8.0 | 0.00 | 0.33 | 0.33 | 58 | 1026.2 |
| 20260904191132 | 15 | 113 | 6.4 | 9.7 | 0.00 | 0.33 | 0.33 | 61 | 1026.3 |
| 20260904190632 | 15 | 120 | 4.8 | 9.7 | 0.00 | 0.33 | 0.33 | 61 | 1026.3 |
| 20260904190359 | 16 | 66 | 1.6 | 9.7 | 0.00 | 0.33 | 0.33 | 61 | 1026.2 |
| 20260904185628 | 16 | 59 | 4.8 | 9.7 | 0.00 | 0.33 | 0.33 | 60 | 1026.3 |
| 20260904185131 | 16 | 32 | 4.8 | 8.0 | 0.00 | 0.33 | 0.33 | 58 | 1026.3 |
| 20260904184631 | 16 | 83 | 0.0 | 6.4 | 0.00 | 0.33 | 0.33 | 59 | 1026.3 |
| 20260904184355 | 16 | 80 | 0.0 | 3.2 | 0.00 | 0.33 | 0.33 | 58 | 1026.4 |
| 20260904183631 | 16 | 319 | 0.0 | 0.0 | 0.00 | 0.33 | 0.33 | 60 | 1026.4 |
| 20260904183131 | 15 | 255 | 0.0 | 3.2 | 0.00 | 0.33 | 0.33 | 64 | 1026.4 |
| 20260904182631 | 15 | 316 | 0.0 | 3.2 | 0.00 | 0.33 | 0.33 | 65 | 1026.4 |
| 20260904182130 | 15 | 340 | 1.6 | 3.2 | 0.00 | 0.33 | 0.33 | 62 | 1026.5 |
| 20260904181631 | 15 | 250 | 0.0 | 1.6 | 0.00 | 0.33 | 0.33 | 69 | 1026.5 |
| 20260904181130 | 14 | 309 | 0.0 | 1.6 | 0.00 | 0.33 | 0.33 | 69 | 1026.4 |
| 20260904180632 | 14 | 11 | 0.0 | 1.6 | 0.00 | 0.33 | 0.33 | 69 | 1026.4 |
| 20260904180620 | 13 | 243 | 0.0 | 1.6 | 0.00 | 0.33 | 0.33 | 72 | 1026.4 |
| 20260904175630 | 13 | 219 | 0.0 | 1.6 | 0.00 | 0.33 | 0.33 | 72 | 1026.6 |
| 20260904175130 | 13 | 51 | 0.0 | 0.0 | 0.00 | 0.33 | 0.33 | 73 | 1026.5 |
| 20260904174630 | 13 | 51 | 0.0 | 4.8 | 0.00 | 0.33 | 0.33 | 73 | 1026.6 |
| 20260904174131 | 13 | 52 | 0.0 | 4.8 | 0.00 | 0.33 | 0.33 | 72 | 1026.6 |
| 20260904173635 | 13 | 94 | 0.0 | 1.6 | 0.00 | 0.33 | 0.33 | 75 | 1026.6 |
| 20260904173127 | 13 | 216 | 0.0 | 0.0 | 0.00 | 0.33 | 0.33 | 73 | 1026.5 |
| 20260904172626 | 13 | 216 | 0.0 | 1.6 | 0.00 | 0.33 | 0.33 | 72 | 1026.5 |
| 20260904172130 | 13 | 212 | 0.0 | 1.6 | 0.00 | 0.33 | 0.33 | 73 | 1026.5 |
| 20260904171629 | 13 | 324 | 0.0 | 1.6 | 0.00 | 0.33 | 0.33 | 74 | 1026.4 |
| 20260904171129 | 13 | 299 | 0.0 | 3.2 | 0.00 | 0.33 | 0.33 | 76 | 1026.3 |
| 20260904170629 | 13 | 258 | 0.0 | 3.2 | 0.00 | 0.33 | 0.33 | 80 | 1026.4 |
| 20260904170129 | 13 | 226 | 0.0 | 1.6 | 0.00 | 0.33 | 0.33 | 81 | 1026.3 |
| 20260904165626 | 12 | 340 | 0.0 | 1.6 | 0.00 | 0.33 | 0.33 | 82 | 1026.3 |
| 20260904165125 | 12 | 24 | 0.0 | 3.2 | 0.00 | 0.33 | 0.33 | 83 | 1026.2 |
| 20260904164627 | 12 | 24 | 0.0 | 3.2 | 0.00 | 0.33 | 0.33 | 84 | 1026.2 |
| 20260904164125 | 12 | 331 | 0.0 | 3.2 | 0.00 | 0.33 | 0.33 | 86 | 1026.2 |
| 20260904163629 | 12 | 261 | 0.0 | 1.6 | 0.00 | 0.33 | 0.33 | 88 | 1026.1 |
| 20260904163128 | 12 | 20 | 0.0 | 1.6 | 0.00 | 0.33 | 0.33 | 87 | 1026.2 |
| 20260904162628 | 12 | 20 | 0.0 | 1.6 | 0.00 | 0.33 | 0.33 | 88 | 1026.1 |
| 20260904162131 | 12 | 23 | 0.0 | 1.6 | 0.00 | 0.33 | 0.33 | 88 | 1026.1 |
| 20260904161628 | 11 | 47 | 0.0 | 1.6 | 0.00 | 0.33 | 0.33 | 87 | 1026.2 |
| 20260904161134 | 12 | 355 | 0.0 | 1.6 | 0.00 | 0.33 | 0.33 | 87 | 1026.3 |
| 20260904160627 | 12 | 34 | 0.0 | 1.6 | 0.00 | 0.33 | 0.33 | 90 | 1026.3 |
| 20260904160351 | 11 | 251 | 0.0 | 0.0 | 0.00 | 0.33 | 0.33 | 91 | 1026.2 |
| 20260904155628 | 11 | 251 | 0.0 | 1.6 | 0.00 | 0.33 | 0.33 | 92 | 1026.1 |
| 20260904155127 | 11 | 251 | 0.0 | 1.6 | 0.00 | 0.33 | 0.33 | 92 | 1026.2 |
| 20260904154627 | 11 | 251 | 0.0 | 0.0 | 0.00 | 0.33 | 0.33 | 93 | 1026.1 |
| 20260904154355 | 11 | 251 | 0.0 | 0.0 | 0.00 | 0.33 | 0.33 | 93 | 1026.1 |
| 20260904153627 | 10 | 251 | 0.0 | 0.0 | 0.00 | 0.33 | 0.33 | 93 | 1026.1 |
| 20260904153127 | 10 | 251 | 0.0 | 0.0 | 0.00 | 0.33 | 0.33 | 94 | 1026.1 |
| 20260904152628 | 10 | 251 | 0.0 | 0.0 | 0.00 | 0.33 | 0.33 | 94 | 1026.0 |
| 20260904152126 | 10 | 251 | 0.0 | 0.0 | 0.00 | 0.33 | 0.33 | 94 | 1026.0 |
| 20260904151848 | 10 | 251 | 0.0 | 3.2 | 0.00 | 0.33 | 0.33 | 94 | 1026.0 |
| 20260904151126 | 10 | 251 | 0.0 | 3.2 | 0.00 | 0.33 | 0.33 | 94 | 1026.0 |
| 20260904150854 | 10 | 259 | 0.0 | 1.6 | 0.00 | 0.33 | 0.33 | 94 | 1025.8 |
| 20260904150131 | 10 | 247 | 0.0 | 1.6 | 0.00 | 0.33 | 0.33 | 94 | 1025.8 |
| 20260904145627 | 10 | 247 | 0.0 | 1.6 | 0.00 | 0.33 | 0.33 | 94 | 1025.7 |
| 20260904145126 | 10 | 247 | 0.0 | 0.0 | 0.00 | 0.33 | 0.33 | 94 | 1025.8 |
| 20260904144625 | 10 | 247 | 0.0 | 0.0 | 0.00 | 0.33 | 0.33 | 94 | 1025.7 |
| 20260904144125 | 10 | 245 | 0.0 | 0.0 | 0.00 | 0.33 | 0.33 | 94 | 1025.6 |
| 20260904143626 | 10 | 247 | 0.0 | 0.0 | 0.00 | 0.33 | 0.33 | 94 | 1025.5 |
| 20260904143127 | 10 | 247 | 0.0 | 0.0 | 0.00 | 0.33 | 0.33 | 94 | 1025.6 |
| 20260904142625 | 9 | 245 | 0.0 | 0.0 | 0.00 | 0.33 | 0.33 | 94 | 1025.4 |
| 20260904142125 | 9 | 247 | 0.0 | 0.0 | 0.00 | 0.33 | 0.33 | 94 | 1025.5 |
| 20260904141625 | 9 | 245 | 0.0 | 0.0 | 0.00 | 0.33 | 0.33 | 94 | 1025.4 |
| 20260904141125 | 9 | 247 | 0.0 | 0.0 | 0.00 | 0.33 | 0.33 | 94 | 1025.4 |
| 20260904140852 | 9 | 247 | 0.0 | 0.0 | 0.00 | 0.33 | 0.33 | 94 | 1025.2 |
| 20260904140125 | 9 | 247 | 0.0 | 0.0 | 0.00 | 0.33 | 0.33 | 94 | 1025.2 |
| 20260904135626 | 9 | 247 | 0.0 | 0.0 | 0.00 | 0.33 | 0.33 | 94 | 1025.1 |
| 20260904135125 | 9 | 247 | 0.0 | 0.0 | 0.00 | 0.33 | 0.33 | 94 | 1025.1 |
| 20260904134626 | 9 | 245 | 0.0 | 0.0 | 0.03 | 0.33 | 0.33 | 94 | 1024.9 |
| 20260904134124 | 9 | 247 | 0.0 | 0.0 | 0.03 | 0.33 | 0.33 | 94 | 1024.9 |
| 20260904133852 | 9 | 247 | 0.0 | 0.0 | 0.03 | 0.33 | 0.33 | 94 | 1024.8 |
| 20260904133341 | 9 | 247 | 0.0 | 0.0 | 0.03 | 0.33 | 0.33 | 94 | 1024.8 |
| 20260904132845 | 9 | 247 | 0.0 | 0.0 | 0.03 | 0.33 | 0.33 | 94 | 1024.7 |
| 20260904132124 | 9 | 245 | 0.0 | 0.0 | 0.05 | 0.33 | 0.33 | 94 | 1024.6 |
| 20260904131624 | 9 | 247 | 0.0 | 0.0 | 0.05 | 0.33 | 0.33 | 94 | 1024.6 |
| 20260904131345 | 9 | 247 | 0.0 | 0.0 | 0.08 | 0.33 | 0.33 | 93 | 1024.6 |
| 20260904130623 | 9 | 247 | 0.0 | 0.0 | 0.10 | 0.33 | 0.33 | 93 | 1024.5 |
| 20260904130343 | 9 | 245 | 0.0 | 0.0 | 0.13 | 0.33 | 0.33 | 93 | 1024.5 |
| 20260904125624 | 9 | 247 | 0.0 | 0.0 | 0.15 | 0.33 | 0.33 | 93 | 1024.4 |
| 20260904125123 | 9 | 245 | 0.0 | 0.0 | 0.15 | 0.33 | 0.33 | 93 | 1024.2 |
| 20260904124623 | 9 | 247 | 0.0 | 1.6 | 0.15 | 0.30 | 0.30 | 93 | 1024.4 |
| 20260904124123 | 9 | 247 | 0.0 | 1.6 | 0.18 | 0.30 | 0.30 | 93 | 1024.4 |
| 20260904123850 | 9 | 245 | 0.0 | 1.6 | 0.18 | 0.30 | 0.30 | 93 | 1024.4 |
| 20260904123123 | 9 | 245 | 0.0 | 0.0 | 0.20 | 0.30 | 0.30 | 93 | 1024.4 |
| 20260904123112 | 9 | 247 | 0.0 | 0.0 | 0.20 | 0.30 | 0.30 | 93 | 1024.4 |
| 20260904122122 | 10 | 247 | 0.0 | 0.0 | 0.18 | 0.28 | 0.28 | 93 | 1024.2 |
| 20260904121624 | 10 | 247 | 0.0 | 0.0 | 0.20 | 0.28 | 0.28 | 93 | 1024.2 |
| 20260904121122 | 10 | 247 | 0.0 | 0.0 | 0.18 | 0.25 | 0.25 | 93 | 1024.1 |
| 20260904120622 | 10 | 247 | 0.0 | 3.2 | 0.15 | 0.23 | 0.25 | 93 | 1024.1 |
| 20260904120122 | 10 | 247 | 0.0 | 3.2 | 0.15 | 0.20 | 0.20 | 93 | 1024.1 |
| 20260904115622 | 10 | 76 | 0.0 | 1.6 | 0.15 | 0.18 | 0.18 | 93 | 1024.1 |
| 20260904115123 | 10 | 76 | 0.0 | 4.8 | 0.15 | 0.18 | 0.18 | 92 | 1024.1 |
| 20260904114123 | 10 | 104 | 0.0 | 3.2 | 0.10 | 0.13 | 0.13 | 92 | 1024.0 |
| 20260904113627 | 10 | 131 | 0.0 | 0.0 | 0.10 | 0.13 | 0.13 | 92 | 1023.9 |
| 20260904113123 | 10 | 154 | 0.0 | 0.0 | 0.10 | 0.10 | 0.13 | 92 | 1023.7 |
| 20260904112621 | 9 | 151 | 0.0 | 0.0 | 0.10 | 0.10 | 0.10 | 92 | 1023.7 |
| 20260904112349 | 9 | 127 | 0.0 | 0.0 | 0.10 | 0.10 | 0.10 | 91 | 1023.6 |
| 20260904111622 | 10 | 127 | 0.0 | 0.0 | 0.08 | 0.08 | 0.08 | 91 | 1023.5 |
| 20260904111121 | 10 | 127 | 0.0 | 0.0 | 0.08 | 0.08 | 0.08 | 91 | 1023.4 |
| 20260904110622 | 10 | 127 | 0.0 | 0.0 | 0.08 | 0.08 | 0.08 | 91 | 1023.3 |
| 20260904110121 | 10 | 127 | 0.0 | 0.0 | 0.05 | 0.05 | 0.05 | 90 | 1023.2 |
| 20260904105623 | 10 | 127 | 0.0 | 3.2 | 0.03 | 0.03 | 0.03 | 90 | 1023.1 |
| 20260904105121 | 10 | 127 | 0.0 | 6.4 | 0.03 | 0.03 | 0.03 | 91 | 1023.0 |
| 20260904104623 | 9 | 109 | 1.6 | 6.4 | 0.03 | 0.03 | 0.03 | 91 | 1022.9 |
| 20260904104120 | 9 | 96 | 1.6 | 4.8 | 0.03 | 0.03 | 0.03 | 91 | 1022.7 |
| 20260904103621 | 9 | 241 | 0.0 | 0.0 | 0.03 | 0.03 | 0.03 | 91 | 1022.6 |
| 20260904103120 | 9 | 241 | 0.0 | 0.0 | 0.00 | 0.00 | 0.00 | 91 | 1022.5 |
| 20260904102620 | 9 | 241 | 0.0 | 0.0 | 0.00 | 0.00 | 0.00 | 90 | 1022.3 |
| 20260904102120 | 9 | 241 | 0.0 | 0.0 | 0.00 | 0.00 | 0.00 | 90 | 1022.2 |
| 20260904101620 | 9 | 241 | 0.0 | 0.0 | 0.00 | 0.00 | 0.00 | 90 | 1022.3 |
| 20260904101121 | 10 | 241 | 0.0 | 0.0 | 0.00 | 0.00 | 0.00 | 90 | 1022.2 |
| 20260904100620 | 10 | 241 | 0.0 | 0.0 | 0.00 | 0.00 | 0.00 | 89 | 1022.2 |
| 20260904100121 | 10 | 241 | 0.0 | 0.0 | 0.00 | 0.00 | 0.00 | 89 | 1022.2 |
| 20260904095844 | 10 | 224 | 0.0 | 0.0 | 0.00 | 0.00 | 0.00 | 87 | 1022.2 |
| 20260904095119 | 10 | 224 | 0.0 | 0.0 | 0.00 | 0.00 | 0.00 | 86 | 1022.2 |
| 20260904094619 | 10 | 224 | 0.0 | 0.0 | 0.00 | 0.00 | 0.00 | 85 | 1022.2 |
| 20260904094119 | 10 | 224 | 0.0 | 0.0 | 0.00 | 0.00 | 0.00 | 84 | 1022.2 |
| 20260904093620 | 10 | 224 | 0.0 | 0.0 | 0.00 | 0.03 | 0.00 | 84 | 1022.2 |
| 20260904093119 | 10 | 224 | 0.0 | 0.0 | 0.00 | 0.03 | 0.00 | 82 | 1022.1 |
| 20260904092620 | 10 | 224 | 0.0 | 0.0 | 0.00 | 0.03 | 0.00 | 82 | 1022.1 |
| 20260904092119 | 10 | 224 | 0.0 | 0.0 | 0.00 | 0.03 | 0.00 | 81 | 1022.2 |
| 20260904091620 | 10 | 224 | 0.0 | 0.0 | 0.00 | 0.03 | 0.00 | 79 | 1022.2 |
| 20260904091119 | 10 | 224 | 0.0 | 0.0 | 0.00 | 0.03 | 0.00 | 78 | 1022.1 |
| 20260904090618 | 10 | 224 | 0.0 | 0.0 | 0.00 | 0.03 | 0.00 | 79 | 1022.2 |
| 20260904090119 | 10 | 224 | 0.0 | 0.0 | 0.00 | 0.03 | 0.00 | 79 | 1022.1 |
| 20260904085618 | 10 | 224 | 0.0 | 0.0 | 0.00 | 0.03 | 0.00 | 80 | 1022.2 |
| 20260904085119 | 10 | 224 | 0.0 | 0.0 | 0.00 | 0.03 | 0.00 | 80 | 1022.1 |
| 20260904084618 | 10 | 224 | 0.0 | 0.0 | 0.00 | 0.03 | 0.00 | 81 | 1022.1 |
| 20260904084119 | 10 | 224 | 0.0 | 0.0 | 0.00 | 0.03 | 0.00 | 80 | 1022.1 |
| 20260904083618 | 10 | 224 | 0.0 | 0.0 | 0.00 | 0.03 | 0.00 | 80 | 1022.1 |
| 20260904083119 | 10 | 224 | 0.0 | 0.0 | 0.00 | 0.03 | 0.00 | 79 | 1022.2 |
| 20260904082617 | 10 | 224 | 0.0 | 0.0 | 0.00 | 0.03 | 0.00 | 79 | 1022.1 |
| 20260904082117 | 10 | 224 | 0.0 | 0.0 | 0.00 | 0.03 | 0.00 | 78 | 1022.2 |
| 20260904081617 | 10 | 224 | 0.0 | 0.0 | 0.00 | 0.03 | 0.00 | 78 | 1022.2 |
| 20260904081118 | 10 | 224 | 0.0 | 0.0 | 0.00 | 0.03 | 0.00 | 77 | 1022.2 |
| 20260904080618 | 10 | 224 | 0.0 | 0.0 | 0.00 | 0.03 | 0.00 | 78 | 1022.2 |
| 20260904080339 | 10 | 224 | 0.0 | 0.0 | 0.00 | 0.03 | 0.00 | 78 | 1022.2 |
| 20260904075618 | 11 | 224 | 0.0 | 0.0 | 0.00 | 0.03 | 0.00 | 78 | 1022.2 |
| 20260904075118 | 11 | 224 | 0.0 | 0.0 | 0.00 | 0.03 | 0.00 | 78 | 1022.3 |
| 20260904074617 | 11 | 224 | 0.0 | 0.0 | 0.00 | 0.03 | 0.00 | 78 | 1022.2 |
| 20260904074343 | 11 | 224 | 0.0 | 0.0 | 0.00 | 0.03 | 0.00 | 78 | 1022.2 |
| 20260904073616 | 11 | 224 | 0.0 | 0.0 | 0.00 | 0.03 | 0.00 | 77 | 1022.2 |
| 20260904073117 | 11 | 224 | 0.0 | 0.0 | 0.00 | 0.03 | 0.00 | 78 | 1022.3 |
| 20260904072617 | 11 | 224 | 0.0 | 3.2 | 0.00 | 0.03 | 0.00 | 77 | 1022.2 |